Location: Unspecified
(0.0000°N, 0.0000°E)
Time: 03:06:52
(UTC+00:00)

DMSP 5D-2 F-14 - Pass Details

Date: 07 June 2023
Orbit: 831 x 845 km, 98.9° (Epoch: 28 September)

Event Time Altitude Azimuth Distance (km) Brightness Sun altitude
Exits shadow 19:36:29 30° 59° (ENE) 1,451 5.6 -22.4°
Drops below altitude 10° 19:40:21 10° 16° (NNE) 2,428 7.2 -23.3°
Sets 19:42:55 0° 6° (N) 3,360 8.1 -23.8°
